Salida, CO

8:50 PM MST on December 02, 2016 (GMT -0700)
Salida

Weather History for KANK - February, 2012

Change the Weather History Date:

Tuesday, February 28, 2012

  Actual Average (KGUC) Record (KGUC)
Temperature  
Mean Temperature 34 °F -  
Max Temperature 39 °F 31 °F 46 °F (1999)
Min Temperature 29 °F 8 °F -18 °F (2013)
Degree Days  
Heating Degree Days 30    
Moisture  
Dew Point 21 °F    
Average Humidity 59    
Maximum Humidity 96    
Minimum Humidity 35    
Precipitation  
Precipitation 0.00 in - - ()
Sea Level Pressure  
Sea Level Pressure 29.76 in    
Wind  
Wind Speed 15 mph (SW)    
Max Wind Speed 38 mph    
Max Gust Speed 50 mph    
Visibility 8 miles    
Events      
Averages and records for this station are not official NWS values.
T = Trace of Precipitation, MM = Missing Value Source: NWS Daily Summary

Daily Weather History Graph

Daily Weather History Graph

Search for Another Location

Airport or City:

Trip Planner

Search our weather history database for the weather conditions in past years. The results will help you decide how hot, cold, wet, or windy it might be!

Date:

Astronomy

Feb. 28, 2012 Rise Set
Actual Time 6:38 AM MST 5:55 PM MST
Civil Twilight 6:11 AM MST 6:22 PM MST
Nautical Twilight 5:41 AM MST 6:53 PM MST
Astronomical Twilight 5:10 AM MST 7:23 PM MST
Moon 9:53 AM MST (2/28) No Moon Set
Length of Visible Light 12h 10m
Length of Day
11h 17m
Waxing Crescent, 38% of the Moon is Illuminated
Feb 28
Waxing Crescent
Feb 29
First Quarter
Mar 8
Full
Mar 14
Last Quarter
Mar 22
New

Hourly Weather History & Observations

Time (MST) Temp. Windchill Dew Point Humidity Pressure Visibility Wind Dir Wind Speed Gust Speed Precip Events Conditions
12:15 AM 39.2 °F 30.5 °F 21.6 °F 49% 29.88 in 10.0 mi SSE 16.1 mph 25.3 mph N/A   Mostly Cloudy
12:35 AM 39.7 °F 32.3 °F 21.6 °F 48% 29.88 in 10.0 mi SE 12.7 mph 21.9 mph N/A   Mostly Cloudy
12:55 AM 38.7 °F 30.9 °F 21.9 °F 51% 29.86 in 10.0 mi South 12.7 mph 23.0 mph N/A   Scattered Clouds
1:15 AM 38.7 °F 33.6 °F 22.8 °F 53% 29.85 in 10.0 mi SSE 6.9 mph 19.6 mph N/A   Clear
1:35 AM 38.7 °F 30.5 °F 23.0 °F 53% 29.84 in 10.0 mi SSE 13.8 mph 25.3 mph N/A   Mostly Cloudy
2:15 AM 39.4 °F 31.1 °F 22.8 °F 52% 29.82 in 10.0 mi South 15.0 mph 26.5 mph N/A   Overcast
2:35 AM 38.7 °F 31.4 °F 23.4 °F 54% 29.80 in 10.0 mi South 11.5 mph 21.9 mph N/A   Mostly Cloudy
2:55 AM 38.1 °F 29.8 °F 25.0 °F 59% 29.79 in 7.0 mi SSE 13.8 mph 27.6 mph N/A   Mostly Cloudy
3:15 AM 35.2 °F 25.8 °F 28.0 °F 75% 29.77 in 7.0 mi SE 15.0 mph 21.9 mph N/A   Overcast
3:35 AM 33.4 °F 25.9 °F 30.6 °F 89% 29.77 in 3.0 mi ESE 9.2 mph - N/A   Overcast
4:15 AM 34.2 °F 29.0 °F 28.9 °F 81% 29.75 in 4.0 mi SE 5.8 mph - N/A   Overcast
4:35 AM 32.9 °F 29.8 °F 31.1 °F 93% 29.74 in 2.5 mi SE 3.5 mph - N/A   Overcast
4:55 AM 32.5 °F - 31.3 °F 95% 29.72 in 1.5 mi Calm Calm - N/A   Overcast
5:15 AM 32.5 °F - 31.6 °F 96% 29.70 in 1.8 mi Calm Calm - N/A   Overcast
5:35 AM 32.9 °F - 31.1 °F 93% 29.69 in 2.5 mi Calm Calm - N/A   Overcast
6:15 AM 36.0 °F 26.0 °F 28.9 °F 76% 29.66 in 5.0 mi South 17.3 mph 21.9 mph N/A   Overcast
6:35 AM 36.5 °F 28.2 °F 28.0 °F 71% 29.64 in 7.0 mi SSE 12.7 mph 27.6 mph N/A   Overcast
6:55 AM 35.8 °F 30.9 °F 28.8 °F 76% 29.64 in 7.0 mi SSE 5.8 mph 21.9 mph N/A   Overcast
7:15 AM 35.6 °F 23.0 °F 29.7 °F 79% 29.68 in 0.8 mi WSW 27.6 mph 38.0 mph N/A   Overcast
7:35 AM 32.0 °F 20.5 °F 29.1 °F 89% 29.69 in 1.2 mi SW 18.4 mph 24.2 mph N/A   Overcast
7:55 AM 32.0 °F 20.8 °F 27.5 °F 83% 29.72 in 0.5 mi WSW 17.3 mph 34.5 mph N/A   Overcast
8:15 AM 32.0 °F - 26.6 °F 80% 29.70 in 10.0 mi Calm Calm - N/A   Mostly Cloudy
8:35 AM 34.3 °F 24.6 °F 22.8 °F 63% 29.70 in 10.0 mi SW 15.0 mph 19.6 mph N/A   Scattered Clouds
9:15 AM 36.5 °F 29.2 °F 18.1 °F 47% 29.71 in 10.0 mi SW 10.4 mph 26.5 mph N/A   Mostly Cloudy
9:35 AM 37.4 °F 32.8 °F 14.9 °F 40% 29.70 in 10.0 mi WSW 5.8 mph 20.7 mph N/A   Scattered Clouds
10:15 AM 38.1 °F 29.8 °F 17.1 °F 43% 29.72 in 10.0 mi SW 13.8 mph 19.6 mph N/A   Mostly Cloudy
10:35 AM 37.4 °F 29.3 °F 16.0 °F 42% 29.72 in 10.0 mi West 12.7 mph 20.7 mph N/A   Overcast
10:55 AM 37.4 °F 27.2 °F 22.5 °F 55% 29.72 in 10.0 mi WNW 19.6 mph - N/A   Mostly Cloudy
11:15 AM 36.1 °F 27.7 °F 22.3 °F 57% 29.70 in 10.0 mi West 12.7 mph 21.9 mph N/A   Mostly Cloudy
11:35 AM 37.6 °F 26.9 °F 17.4 °F 44% 29.71 in 10.0 mi West 21.9 mph 27.6 mph N/A   Mostly Cloudy
11:55 AM 36.7 °F 24.9 °F 18.3 °F 47% 29.70 in 10.0 mi West 25.3 mph 34.5 mph N/A   Scattered Clouds
12:15 PM 34.3 °F 23.9 °F 22.1 °F 61% 29.70 in 10.0 mi WSW 17.3 mph 31.1 mph N/A   Scattered Clouds
12:35 PM 36.5 °F 24.9 °F 19.2 °F 50% 29.70 in 10.0 mi WSW 24.2 mph 36.8 mph N/A   Clear
1:15 PM 37.6 °F 23.9 °F 12.0 °F 35% 29.69 in 10.0 mi West 38.0 mph 48.3 mph N/A   Clear
1:35 PM 34.7 °F 20.7 °F 12.7 °F 40% 29.70 in 10.0 mi WSW 33.4 mph 49.5 mph N/A   Clear
1:55 PM 35.6 °F 22.1 °F 12.2 °F 38% 29.71 in 10.0 mi WSW 32.2 mph 46.0 mph N/A   Clear
2:15 PM 35.2 °F 21.2 °F 14.4 °F 42% 29.73 in 10.0 mi West 34.5 mph 43.7 mph N/A   Clear
2:35 PM 35.4 °F 21.5 °F 16.0 °F 45% 29.76 in 10.0 mi West 34.5 mph 43.7 mph N/A   Clear
2:55 PM 35.1 °F 22.7 °F 16.2 °F 46% 29.77 in 10.0 mi West 25.3 mph 40.3 mph N/A   Scattered Clouds
3:15 PM 35.4 °F 22.7 °F 14.0 °F 41% 29.78 in 10.0 mi WSW 27.6 mph 33.4 mph N/A   Mostly Cloudy
3:35 PM 35.2 °F 22.5 °F 13.1 °F 40% 29.79 in 10.0 mi West 27.6 mph 36.8 mph N/A   Mostly Cloudy
3:55 PM 35.4 °F 23.7 °F 12.9 °F 40% 29.80 in 10.0 mi West 23.0 mph 34.5 mph N/A   Mostly Cloudy
4:15 PM 34.2 °F 21.5 °F 14.7 °F 45% 29.80 in 10.0 mi West 25.3 mph 43.7 mph N/A   Mostly Cloudy
4:35 PM 33.8 °F 22.5 °F 15.3 °F 47% 29.82 in 10.0 mi West 19.6 mph 35.7 mph N/A   Mostly Cloudy
4:55 PM 32.9 °F 19.3 °F 15.6 °F 49% 29.83 in 10.0 mi WSW 27.6 mph 38.0 mph N/A   Mostly Cloudy
5:15 PM 32.9 °F 20.1 °F 14.9 °F 48% 29.84 in 10.0 mi West 24.2 mph 33.4 mph N/A   Overcast
5:35 PM 32.5 °F 21.2 °F 16.5 °F 52% 29.85 in 10.0 mi WSW 18.4 mph 27.6 mph N/A   Overcast
5:55 PM 32.5 °F 20.2 °F 17.6 °F 54% 29.86 in 5.0 mi West 21.9 mph 36.8 mph N/A   Overcast
6:15 PM 32.0 °F 23.0 °F 18.5 °F 58% 29.86 in 10.0 mi NW 11.5 mph 25.3 mph N/A   Overcast
6:35 PM 30.6 °F 21.2 °F 21.9 °F 70% 29.87 in 10.0 mi NW 11.5 mph 17.3 mph N/A   Overcast
7:15 PM 32.0 °F 21.6 °F 16.9 °F 54% 29.88 in 10.0 mi West 15.0 mph 25.3 mph N/A   Overcast
7:35 PM 29.5 °F 18.8 °F 23.7 °F 79% 29.90 in 1.2 mi West 13.8 mph 23.0 mph N/A   Overcast
7:55 PM 28.2 °F 18.9 °F 24.3 °F 85% 29.90 in 2.5 mi West 10.4 mph - N/A   Overcast
8:15 PM 28.4 °F 18.5 °F 23.9 °F 83% 29.90 in 2.5 mi WSW 11.5 mph 17.3 mph N/A   Overcast
8:35 PM 27.5 °F 18.6 °F 25.0 °F 90% 29.91 in 1.0 mi West 9.2 mph - N/A   Overcast
8:55 PM 28.2 °F 21.0 °F 23.9 °F 84% 29.92 in 2.5 mi West 6.9 mph - N/A   Overcast
9:15 PM 28.4 °F 19.1 °F 23.9 °F 83% 29.93 in 7.0 mi West 10.4 mph - N/A   Overcast
9:35 PM 27.5 °F 18.0 °F 23.5 °F 85% 29.93 in 3.0 mi WSW 10.4 mph - N/A   Overcast
9:55 PM 29.3 °F 19.6 °F 19.8 °F 68% 29.92 in 10.0 mi West 11.5 mph 17.3 mph N/A   Overcast
10:15 PM 30.7 °F 20.0 °F 16.5 °F 56% 29.93 in 7.0 mi West 15.0 mph 26.5 mph N/A   Mostly Cloudy
10:35 PM 30.4 °F 17.3 °F 15.3 °F 53% 29.93 in 7.0 mi West 21.9 mph 29.9 mph N/A   Scattered Clouds
11:15 PM 29.7 °F 15.8 °F 12.0 °F 48% 29.94 in 10.0 mi West 24.2 mph 36.8 mph N/A   Clear
11:35 PM 29.7 °F 15.2 °F 11.5 °F 47% 29.94 in 10.0 mi West 26.5 mph 32.2 mph N/A   Clear
11:55 PM 29.7 °F 14.7 °F 12.2 °F 48% 29.94 in 10.0 mi West 28.8 mph 36.8 mph N/A   Clear